Location: Jarosław
(50.0191°N, 22.6835°E)
Time: 21:51:22
(UTC+02:00)

ISS - Pass Details

Date: 25 March 2019
Orbit: 408 x 410 km, 51.6° (Epoch: 24 April)

Event Time Altitude Azimuth Distance (km) Brightness Sun altitude
Rises 20:14:38 0° 264° (W) 2,335 0.8 -22.7°
Reaches altitude 10° 20:16:43 10° 267° (W) 1,474 -0.3 -23.0°
Enters shadow 20:19:03 41° 282° (WNW) 605 -2.6 -23.3°
